Location: Contre
(49.7477°N, 2.0963°E)
Time: 10:51:48
(UTC+00:00)

ISS - Pass Details

Date: 06 March 2024
Orbit: 413 x 419 km, 51.6° (Epoch: 13 April)

Event Time Altitude Azimuth Distance (km) Brightness Sun altitude
Exits shadow 03:35:21 15° 112° (ESE) 1,259 -0.9 -27.3°
Drops below altitude 10° 03:35:59 10° 111° (ESE) 1,516 -0.4 -27.2°
Sets 03:38:05 0° 111° (ESE) 2,379 0.7 -26.9°
